This is the latest recevied weather packets stored in our database for station/object SP9KB-14. If no packets are shown the sender has not sent any weather packets the latest 10 day(s).
| Time | Temp. | Humidity | Pressure | Rain* | Wind** | Luminosity | Snow |
|---|---|---|---|---|---|---|---|
| 1777898014 | 25° C | 41% | 1037.1 hPa | 0 mm | - | - | - |
| 1777897714 | 25° C | 40% | 1037.2 hPa | 0 mm | - | - | - |
| 1777897413 | 25° C | 40% | 1037.2 hPa | 0 mm | - | - | - |
| 1777897113 | 24.44° C | 41% | 1037.2 hPa | 0 mm | - | - | - |
| 1777896812 | 24.44° C | 42% | 1037.4 hPa | 0 mm | - | - | - |
| 1777896511 | 24.44° C | 41% | 1037.3 hPa | 0 mm | - | - | - |
| 1777896211 | 24.44° C | 41% | 1037.3 hPa | 0 mm | - | - | - |
| 1777895910 | 24.44° C | 41% | 1037.6 hPa | 0 mm | - | - | - |
| 1777895610 | 24.44° C | 40% | 1037.4 hPa | 0 mm | - | - | - |
| 1777895309 | 25° C | 40% | 1037.5 hPa | 0 mm | - | - | - |
| 1777895008 | 25° C | 40% | 1037.6 hPa | 0 mm | - | - | - |
| 1777894708 | 25° C | 40% | 1037.8 hPa | 0 mm | - | - | - |
| 1777894407 | 24.44° C | 40% | 1037.7 hPa | 0 mm | - | - | - |
| 1777894107 | 23.89° C | 41% | 1037.7 hPa | 0 mm | - | - | - |
| 1777893806 | 24.44° C | 41% | 1037.6 hPa | 0 mm | - | - | - |
| 1777893506 | 24.44° C | 40% | 1037.6 hPa | 0 mm | - | - | - |
| 1777893205 | 24.44° C | 41% | 1038 hPa | 0 mm | - | - | - |
| 1777892904 | 24.44° C | 41% | 1037.6 hPa | 0 mm | - | - | - |
| 1777892604 | 24.44° C | 40% | 1037.9 hPa | 0 mm | - | - | - |
| 1777892303 | 24.44° C | 40% | 1038 hPa | 0 mm | - | - | - |
| 1777892003 | 24.44° C | 41% | 1037.9 hPa | 0 mm | - | - | - |
| 1777891702 | 24.44° C | 42% | 1038 hPa | 0 mm | - | - | - |
| 1777891401 | 23.33° C | 42% | 1038.1 hPa | 0 mm | - | - | - |
| 1777891101 | 23.89° C | 41% | 1038.3 hPa | 0 mm | - | - | - |
| 1777890800 | 23.33° C | 42% | 1038.4 hPa | 0 mm | - | - | - |
* Rain latest hour (hover to see other rain measurements)
** Current wind speed in m/s (hover to see current wind gust speed)